Find Insat 2E

NORAD ID: 25666 Int'l Des: 1999-016 Owner: ISRO Country: IN operational
HEOCIRCULAR

实时位置

正在加载3D地球...

关于 Insat 2E

正在加载描述...

即将过境

Passes for default location (London). Set your location on the main map for personalized predictions.

高度历史

Loading altitude history...

两行轨道根数

1 25666U 99016A 26105.62128133 -.00000263 00000-0 00000+0 0 9991
2 25666 11.2334 40.8305 0010514 297.4328 243.3138 0.99662522 50816
Epoch: Apr 15, 2026 • Age: 14 hours

当前状态

高度 35964.8 km
速度 3.07 km/s
星下点 6.83°N, 152.39°E
发射日期 Apr 2, 1999
运行时间 27 years
类型 other

技术详情

分类 Payload
质量 2550.00 kg
干质量 1146.00 kg
总质量 2550.00 kg
长度 2.30 m
直径 1.90 m
跨度 24.70 m
形状 Box + Pan + Ant
制造商 ISRO
平台类型 I2K
阶段状态 In Orbit
所有者/国家 ISRO/IN

Most Searched